Bettles, AK

10:35 AM AKST on November 24, 2017 (GMT -0900)
Bettles

Weather History for PABT - October, 2011

Change the Weather History Date:

Sunday, October 2, 2011

  Actual Average Record
Temperature  
Mean Temperature 32 °F -  
Max Temperature 39 °F 36 °F 57 °F (2003)
Min Temperature 24 °F 23 °F 2 °F (1970)
Degree Days  
Heating Degree Days 34    
Moisture  
Dew Point 21 °F    
Average Humidity 65    
Maximum Humidity 78    
Minimum Humidity 51    
Precipitation  
Precipitation 0.00 in - - ()
Sea Level Pressure  
Sea Level Pressure 29.65 in    
Wind  
Wind Speed 8 mph (NNE)    
Max Wind Speed 13 mph    
Max Gust Speed 20 mph    
Visibility 10 miles    
Events Snow    
Averages and records for this station are not official NWS values.
T = Trace of Precipitation, MM = Missing Value Source: NWS Daily Summary

Daily Weather History Graph

Daily Weather History Graph

Search for Another Location

Airport or City:

Trip Planner

Search our weather history database for the weather conditions in past years. The results will help you decide how hot, cold, wet, or windy it might be!

Date:

Astronomy

Oct. 02, 2011 Rise Set
Actual Time 8:21 AM AKDT 7:28 PM AKDT
Civil Twilight 7:28 AM AKDT 8:20 PM AKDT
Nautical Twilight 6:25 AM AKDT 9:23 PM AKDT
Astronomical Twilight 5:15 AM AKDT 10:32 PM AKDT
Moon 6:24 PM AKDT (10/2) 7:53 PM AKDT (10/2)
Length of Visible Light 12h 52m
Length of Day
11h 07m
Waxing Crescent, 36% of the Moon is Illuminated
Oct 2
Waxing Crescent
Oct 3
First Quarter
Oct 11
Full
Oct 19
Last Quarter
Oct 26
New

Hourly Weather History & Observations

Time (AKDT) Temp. Windchill Dew Point Humidity Pressure Visibility Wind Dir Wind Speed Gust Speed Precip Events Conditions
12:53 AM 25.0 °F 15.5 °F 19.0 °F 78% 29.78 in 10.0 mi NNE 9.2 mph - N/A   Partly Cloudy
1:53 AM 25.0 °F 17.1 °F 18.0 °F 75% 29.77 in 10.0 mi North 6.9 mph - N/A   Partly Cloudy
2:53 AM 25.0 °F 17.1 °F 17.1 °F 72% 29.75 in 10.0 mi North 6.9 mph - N/A   Partly Cloudy
3:53 AM 25.0 °F 20.7 °F 16.0 °F 69% 29.74 in 10.0 mi Variable 3.5 mph - N/A   Partly Cloudy
4:53 AM 24.1 °F 16.0 °F 17.1 °F 75% 29.73 in 10.0 mi North 6.9 mph - N/A   Partly Cloudy
5:53 AM 26.1 °F 16.8 °F 17.1 °F 69% 29.73 in 10.0 mi North 9.2 mph - N/A   Partly Cloudy
6:53 AM 27.0 °F 17.3 °F 18.0 °F 69% 29.70 in 10.0 mi NNE 10.4 mph - N/A   Overcast
7:53 AM 27.0 °F 17.3 °F 19.9 °F 75% 29.69 in 7.0 mi NNE 10.4 mph 18.4 mph 0.00 in Snow Light Snow
8:53 AM 28.9 °F 19.8 °F 21.0 °F 72% 29.69 in 10.0 mi NNE 10.4 mph 19.6 mph 0.00 in Snow Light Snow
9:53 AM 28.9 °F 18.6 °F 21.0 °F 72% 29.67 in 10.0 mi NNE 12.7 mph - 0.00 in   Overcast
10:53 AM 30.9 °F 22.2 °F 21.9 °F 69% 29.66 in 10.0 mi NNE 10.4 mph 18.4 mph N/A   Overcast
11:53 AM 33.1 °F 25.5 °F 23.0 °F 66% 29.65 in 10.0 mi NNE 9.2 mph - N/A   Overcast
12:53 PM 34.0 °F 27.2 °F 23.0 °F 64% 29.65 in 10.0 mi NNE 8.1 mph - N/A   Overcast
1:53 PM 36.0 °F 29.6 °F 23.0 °F 59% 29.63 in 10.0 mi NNE 8.1 mph - N/A   Overcast
2:53 PM 37.0 °F 30.4 °F 23.0 °F 57% 29.62 in 10.0 mi NNE 9.2 mph - N/A   Overcast
3:53 PM 39.0 °F 32.8 °F 23.0 °F 53% 29.60 in 10.0 mi NNE 9.2 mph - N/A   Overcast
4:53 PM 39.9 °F 33.9 °F 23.0 °F 51% 29.59 in 10.0 mi NNE 9.2 mph - N/A   Overcast
5:53 PM 39.9 °F 34.5 °F 24.1 °F 53% 29.59 in 10.0 mi NNE 8.1 mph - N/A   Overcast
6:53 PM 39.0 °F 33.4 °F 24.1 °F 55% 29.58 in 10.0 mi NNE 8.1 mph - N/A   Overcast
7:53 PM 37.9 °F 32.7 °F 24.1 °F 57% 29.57 in 10.0 mi NNE 6.9 mph - N/A   Overcast
8:53 PM 37.0 °F 31.6 °F 25.0 °F 62% 29.56 in 10.0 mi NNE 6.9 mph - N/A   Overcast
9:53 PM 37.0 °F 32.4 °F 25.0 °F 62% 29.55 in 10.0 mi NNE 5.8 mph - N/A   Overcast
10:53 PM 37.4 °F 33.8 °F 24.8 °F 60% 29.50 in 10.0 mi North 4.6 mph - N/A   Overcast
11:53 PM 37.9 °F 32.7 °F 24.1 °F 57% 29.52 in 10.0 mi NNE 6.9 mph - N/A   Overcast